CW6666 Weather Reports


Display with metric or nautical units.
time (UTC)temp
F
wind
direction
speed
MPH
gust
MPH
rain 1hr
in
rain 24hr
in
rain mn
in
humidity
%
barometer
mb
20160206090545 80 70 9.0 16.0 0.00 0.08 0.08 87 1008.2
20160206090115 80 72 10.0 16.0 0.00 0.08 0.08 87 1008.2
20160206085545 80 82 12.0 17.0 0.00 0.08 0.08 86 1008.0
20160206085044 81 72 14.0 17.0 0.00 0.08 0.08 85 1008.1
20160206084545 81 80 12.0 16.0 0.00 0.08 0.08 84 1008.1
20160206084044 82 74 9.0 14.0 0.00 0.08 0.08 84 1008.0
20160206083545 81 77 11.0 14.0 0.00 0.08 0.08 84 1008.0
20160206083045 81 74 12.0 15.0 0.00 0.08 0.08 83 1007.9
20160206082545 81 82 12.0 17.0 0.00 0.08 0.08 83 1007.7
20160206082045 81 77 12.0 17.0 0.00 0.08 0.08 83 1007.7
20160206081544 81 72 15.0 17.0 0.00 0.08 0.08 83 1007.7
20160206081044 82 82 13.0 16.0 0.00 0.08 0.08 83 1007.7
20160206080545 81 64 13.0 15.0 0.00 0.08 0.08 83 1007.7
20160206080114 82 70 13.0 15.0 0.00 0.08 0.08 84 1007.7
20160206075546 82 75 12.0 15.0 0.00 0.08 0.08 84 1007.7
20160206075045 82 82 9.0 16.0 0.00 0.08 0.08 84 1007.7
20160206074545 82 80 14.0 16.0 0.00 0.08 0.08 83 1007.7
20160206074045 82 73 13.0 15.0 0.00 0.08 0.08 84 1007.7
20160206073545 82 76 13.0 15.0 0.00 0.08 0.08 83 1007.7
20160206073044 82 85 13.0 16.0 0.00 0.08 0.08 83 1007.7
20160206072545 82 88 11.0 16.0 0.00 0.08 0.08 83 1007.5
20160206072044 82 83 11.0 16.0 0.00 0.08 0.08 83 1007.5
20160206071545 82 86 12.0 16.0 0.00 0.08 0.08 82 1007.5
20160206071044 83 90 15.0 15.0 0.00 0.08 0.08 83 1007.3
20160206070545 83 84 13.0 15.0 0.00 0.08 0.08 82 1007.3
20160206070045 83 94 13.0 16.0 0.00 0.08 0.08 82 1007.3
20160206065545 83 79 12.0 16.0 0.00 0.08 0.08 81 1007.2
20160206065045 83 83 13.0 16.0 0.00 0.08 0.08 81 1007.2
20160206064545 83 84 12.0 16.0 0.00 0.08 0.08 81 1007.2
20160206064045 83 89 13.0 16.0 0.00 0.08 0.08 81 1007.1
20160206063545 83 89 15.0 15.0 0.00 0.08 0.08 82 1007.1
20160206063044 83 84 12.0 16.0 0.00 0.08 0.08 82 1007.1
20160206062545 83 86 14.0 16.0 0.00 0.08 0.08 82 1006.9
20160206062044 83 88 14.0 16.0 0.00 0.08 0.08 81 1006.9
20160206061545 83 86 12.0 16.0 0.00 0.08 0.08 81 1006.9
20160206061044 84 85 15.0 16.0 0.00 0.08 0.08 81 1006.8
20160206060545 84 90 14.0 16.0 0.00 0.08 0.08 81 1006.8
20160206060045 84 89 14.0 16.0 0.00 0.08 0.08 80 1006.8
20160206055545 84 107 12.0 15.0 0.00 0.08 0.08 80 1006.8
20160206055044 84 101 14.0 17.0 0.00 0.08 0.08 80 1006.8
20160206054545 85 90 13.0 17.0 0.00 0.08 0.08 80 1006.8
20160206054044 85 72 15.0 17.0 0.00 0.08 0.08 80 1006.7
20160206053545 84 85 13.0 16.0 0.00 0.08 0.08 80 1006.7
20160206053045 84 88 13.0 17.0 0.00 0.08 0.08 80 1006.7
20160206052545 84 84 15.0 17.0 0.00 0.08 0.08 80 1006.7
20160206052044 84 91 11.0 17.0 0.00 0.08 0.08 81 1006.7
20160206051545 85 80 13.0 16.0 0.00 0.08 0.08 81 1006.7
20160206051045 84 78 13.0 17.0 0.00 0.08 0.08 81 1006.7
20160206050545 85 89 13.0 18.0 0.00 0.08 0.08 80 1006.7
20160206050044 85 80 16.0 18.0 0.00 0.08 0.08 81 1006.7
20160206045545 84 84 16.0 17.0 0.00 0.08 0.08 80 1006.8
20160206045045 85 85 17.0 17.0 0.00 0.08 0.08 79 1006.8
20160206044544 85 76 12.0 17.0 0.00 0.08 0.08 81 1006.8
20160206044044 84 65 14.0 17.0 0.00 0.08 0.08 80 1006.8
20160206043544 84 85 12.0 16.0 0.00 0.08 0.08 80 1006.8
20160206043045 85 92 12.0 16.0 0.00 0.08 0.08 80 1006.8
20160206042545 84 82 10.0 16.0 0.00 0.08 0.08 79 1007.0
20160206042044 84 85 12.0 17.0 0.00 0.08 0.08 80 1007.0
20160206041544 84 84 14.0 17.0 0.00 0.08 0.08 79 1007.0
20160206041045 85 87 13.0 17.0 0.00 0.08 0.08 79 1007.1
20160206040544 85 89 15.0 17.0 0.00 0.08 0.08 79 1007.1
20160206040115 85 91 11.0 17.0 0.00 0.08 0.08 79 1007.1
20160206035545 85 87 13.0 18.0 0.00 0.08 0.08 78 1007.2
20160206035045 85 92 14.0 20.0 0.00 0.08 0.08 79 1007.2
20160206034545 85 87 15.0 20.0 0.00 0.08 0.08 79 1007.2
20160206034044 85 81 16.0 18.0 0.00 0.08 0.08 78 1007.4
20160206033544 84 92 15.0 18.0 0.00 0.08 0.08 79 1007.4
20160206033044 84 78 15.0 16.0 0.00 0.08 0.08 81 1007.4
20160206032545 84 75 14.0 16.0 0.00 0.08 0.08 81 1007.7
20160206032044 84 77 12.0 16.0 0.00 0.08 0.08 81 1007.7
20160206031544 84 74 12.0 16.0 0.00 0.08 0.08 82 1007.7
20160206031044 84 65 11.0 17.0 0.00 0.08 0.08 81 1007.7
20160206030544 84 74 13.0 17.0 0.00 0.08 0.08 81 1007.7
20160206030044 85 87 12.0 15.0 0.00 0.08 0.08 81 1007.7
20160206025544 85 71 12.0 15.0 0.00 0.08 0.08 82 1007.8
20160206025044 85 72 13.0 14.0 0.00 0.08 0.08 82 1007.8
20160206024544 84 75 13.0 14.0 0.00 0.08 0.08 81 1007.8
20160206024044 84 75 11.0 14.0 0.00 0.08 0.08 81 1008.1
20160206023544 84 82 10.0 14.0 0.00 0.08 0.08 81 1008.1
20160206023044 84 78 12.0 15.0 0.00 0.08 0.08 82 1008.1
20160206022544 84 75 11.0 16.0 0.00 0.08 0.08 82 1008.3
20160206022044 84 83 13.0 16.0 0.00 0.08 0.08 82 1008.3
20160206021544 83 73 14.0 15.0 0.00 0.08 0.08 82 1008.3
20160206021044 84 71 13.0 15.0 0.00 0.08 0.08 82 1008.5
20160206020544 84 84 11.0 15.0 0.00 0.08 0.08 83 1008.5
20160206020045 83 88 14.0 15.0 0.00 0.08 0.08 82 1008.5
20160206015545 84 78 13.0 15.0 0.00 0.08 0.08 82 1008.7
20160206015045 84 74 11.0 14.0 0.00 0.08 0.08 81 1008.7
20160206014545 84 76 12.0 16.0 0.00 0.08 0.08 82 1008.7
20160206014045 84 63 12.0 17.0 0.00 0.08 0.08 82 1008.9
20160206013544 83 74 13.0 17.0 0.00 0.08 0.08 81 1008.9
20160206013044 83 96 10.0 16.0 0.00 0.08 0.08 82 1008.9
20160206012544 83 69 12.0 16.0 0.00 0.08 0.08 81 1009.0
20160206012045 83 76 12.0 16.0 0.00 0.08 0.08 81 1009.0
20160206011545 83 80 13.0 16.0 0.00 0.08 0.08 82 1009.0
20160206011044 83 88 14.0 16.0 0.00 0.08 0.08 82 1009.1
20160206010545 83 84 15.0 16.0 0.00 0.08 0.08 83 1009.1
20160206010045 83 88 12.0 15.0 0.00 0.08 0.08 85 1009.1
20160206005544 83 82 9.0 14.0 0.00 0.08 0.08 85 1009.0
20160206005044 82 87 10.0 16.0 0.00 0.08 0.08 85 1009.0
20160206004544 82 86 14.0 17.0 0.00 0.08 0.08 85 1009.0
20160206004044 82 74 12.0 18.0 0.00 0.08 0.08 84 1009.2
20160206003544 82 76 16.0 18.0 0.00 0.08 0.08 85 1009.2
20160206003044 82 80 15.0 19.0 0.00 0.08 0.08 85 1009.2
20160206002544 82 65 14.0 19.0 0.00 0.08 0.08 85 1009.3
20160206002044 82 85 17.0 18.0 0.00 0.08 0.08 86 1009.3
20160206001545 82 75 14.0 17.0 0.00 0.08 0.08 87 1009.3
20160206001044 81 76 11.0 17.0 0.01 0.08 0.08 87 1009.3
20160206000544 81 69 14.0 17.0 0.04 0.08 0.08 88 1009.3
20160206000114 81 78 13.0 17.0 0.08 0.08 0.08 88 1009.3
20160205235544 81 70 15.0 17.0 0.08 0.08 0.08 89 1009.3
20160205235045 80 79 15.0 17.0 0.08 0.08 0.08 90 1009.3
20160205234544 79 73 13.0 17.0 0.08 0.08 0.08 91 1009.2
20160205234044 79 79 13.0 14.0 0.08 0.08 0.08 92 1009.3
20160205233544 79 67 11.0 14.0 0.08 0.08 0.08 92 1009.3
20160205233044 78 74 13.0 16.0 0.08 0.08 0.08 93 1009.3
20160205232544 78 80 12.0 21.0 0.08 0.08 0.08 93 1009.4
20160205232044 78 71 16.0 21.0 0.08 0.08 0.08 92 1009.4
20160205231545 78 75 14.0 22.0 0.08 0.08 0.08 92 1009.4
20160205231044 78 88 18.0 27.0 0.07 0.07 0.07 90 1008.9
20160205230544 79 96 18.0 27.0 0.04 0.04 0.04 86 1008.9
20160205230045 81 74 15.0 19.0 0.00 0.00 0.00 83 1008.9
20160205225544 81 76 14.0 20.0 0.00 0.00 0.00 83 1008.7
20160205225044 81 65 16.0 20.0 0.00 0.00 0.00 83 1008.7
20160205224544 82 69 16.0 17.0 0.00 0.00 0.00 84 1008.8
20160205224044 81 74 14.0 18.0 0.00 0.00 0.00 83 1008.7
20160205223544 81 70 14.0 18.0 0.00 0.00 0.00 83 1008.7
20160205223045 81 74 15.0 18.0 0.00 0.00 0.00 83 1008.7
20160205222545 82 71 13.0 18.0 0.00 0.00 0.00 83 1008.4
20160205222044 82 74 13.0 18.0 0.00 0.00 0.00 84 1008.4
20160205221544 82 59 15.0 18.0 0.00 0.00 0.00 84 1008.4
20160205221045 82 67 16.0 18.0 0.00 0.00 0.00 84 1008.3
20160205220545 81 73 17.0 17.0 0.00 0.00 0.00 83 1008.2
20160205220045 81 69 13.0 18.0 0.00 0.00 0.00 83 1008.2
20160205215544 81 58 14.0 18.0 0.00 0.00 0.00 83 1008.1
20160205215044 81 71 13.0 18.0 0.00 0.00 0.00 83 1008.1
20160205214544 81 78 16.0 18.0 0.00 0.00 0.00 83 1008.1
20160205214044 81 74 14.0 19.0 0.00 0.00 0.00 84 1008.1
20160205213544 81 69 13.0 20.0 0.00 0.00 0.00 84 1008.1
20160205213044 80 64 14.0 20.0 0.00 0.00 0.00 85 1008.0
20160205212545 80 64 14.0 19.0 0.00 0.00 0.00 84 1007.7
20160205212044 80 67 15.0 20.0 0.00 0.00 0.00 84 1007.7
20160205211544 80 78 13.0 21.0 0.00 0.00 0.00 84 1007.7
20160205211044 80 70 16.0 21.0 0.00 0.00 0.00 85 1007.6
20160205210544 80 65 15.0 21.0 0.00 0.00 0.00 86 1007.7
20160205210044 80 65 16.0 21.0 0.00 0.00 0.00 86 1007.7
20160205205545 80 74 19.0 20.0 0.00 0.00 0.00 87 1007.7
20160205205044 80 65 15.0 19.0 0.00 0.00 0.00 88 1007.7
20160205204545 80 57 13.0 20.0 0.00 0.00 0.00 88 1007.7
20160205204044 80 61 19.0 20.0 0.00 0.00 0.00 88 1007.6
20160205203545 80 64 17.0 20.0 0.00 0.00 0.00 88 1007.6
20160205203044 79 38 15.0 21.0 0.00 0.00 0.00 87 1007.5
20160205202545 80 61 15.0 21.0 0.00 0.00 0.00 88 1007.4
20160205202044 79 59 19.0 21.0 0.00 0.00 0.00 87 1007.3
20160205201544 79 61 19.0 21.0 0.00 0.00 0.00 88 1007.3
20160205201045 79 68 14.0 21.0 0.00 0.00 0.00 87 1007.2
20160205200544 79 64 14.0 19.0 0.00 0.01 0.00 88 1007.2
20160205200044 79 78 15.0 18.0 0.00 0.01 0.00 87 1007.2
20160205195544 79 72 16.0 17.0 0.00 0.01 0.00 87 1007.1
20160205195044 78 74 11.0 17.0 0.00 0.01 0.00 87 1007.1
20160205194544 78 71 16.0 19.0 0.00 0.01 0.00 87 1007.1
20160205194044 78 67 12.0 23.0 0.00 0.01 0.00 88 1007.1
20160205193544 77 58 19.0 28.0 0.00 0.01 0.00 88 1007.1
20160205193044 77 54 19.0 31.0 0.00 0.01 0.00 87 1007.1
20160205192544 79 60 22.0 31.0 0.00 0.01 0.00 86 1006.6
20160205192044 80 43 22.0 23.0 0.00 0.01 0.00 83 1006.6
20160205191544 80 65 15.0 21.0 0.00 0.01 0.00 83 1006.6
20160205191044 80 70 18.0 21.0 0.00 0.01 0.00 83 1006.6
20160205190544 80 67 21.0 21.0 0.00 0.01 0.00 83 1006.6
20160205190044 80 67 17.0 21.0 0.00 0.01 0.00 84 1006.6
20160205185544 80 59 17.0 22.0 0.00 0.01 0.00 84 1006.6
20160205185044 80 61 19.0 22.0 0.00 0.01 0.00 83 1006.6
20160205184544 80 53 17.0 21.0 0.00 0.01 0.00 84 1006.6
20160205184044 80 63 16.0 22.0 0.00 0.01 0.00 84 1006.7
20160205183544 80 69 19.0 22.0 0.00 0.01 0.00 83 1006.7
20160205183044 80 62 20.0 22.0 0.00 0.01 0.00 83 1006.7
20160205182544 80 65 19.0 21.0 0.00 0.01 0.00 83 1006.7
20160205182044 80 55 18.0 22.0 0.00 0.01 0.00 83 1006.7
20160205181544 80 59 20.0 24.0 0.00 0.01 0.00 84 1006.7
20160205181044 80 57 17.0 24.0 0.00 0.01 0.00 83 1006.7
20160205180544 80 49 18.0 24.0 0.00 0.01 0.00 83 1006.7
20160205180044 80 57 22.0 24.0 0.00 0.01 0.00 83 1006.7
20160205175544 80 67 20.0 25.0 0.00 0.01 0.00 82 1006.7
20160205175044 80 57 21.0 25.0 0.00 0.01 0.00 82 1006.7
20160205174544 80 57 20.0 25.0 0.00 0.01 0.00 83 1006.7
20160205174044 80 59 18.0 24.0 0.00 0.01 0.00 83 1006.7
20160205173544 80 47 15.0 24.0 0.00 0.01 0.00 84 1006.7
20160205173044 80 63 17.0 24.0 0.00 0.01 0.00 82 1006.7
20160205172544 80 51 17.0 23.0 0.00 0.01 0.00 82 1006.7
20160205172044 80 54 20.0 21.0 0.00 0.01 0.00 82 1006.7
20160205171544 80 49 20.0 24.0 0.00 0.01 0.00 81 1006.7
20160205171045 80 57 19.0 24.0 0.00 0.01 0.00 81 1007.0
20160205170544 80 49 24.0 24.0 0.00 0.01 0.00 82 1007.0
20160205170044 80 65 13.0 24.0 0.00 0.01 0.00 82 1007.0
20160205165544 80 68 20.0 24.0 0.00 0.01 0.00 82 1007.2
20160205165044 80 55 17.0 23.0 0.00 0.01 0.00 82 1007.2
20160205164544 80 65 16.0 22.0 0.00 0.01 0.00 82 1007.2
20160205164044 80 69 19.0 24.0 0.00 0.01 0.00 82 1007.2
20160205163544 80 57 21.0 24.0 0.00 0.01 0.00 81 1007.2
20160205163044 80 64 20.0 23.0 0.00 0.01 0.00 82 1007.2
20160205162544 80 58 19.0 23.0 0.00 0.01 0.00 82 1007.2
20160205162044 80 59 19.0 23.0 0.00 0.01 0.00 82 1007.2
20160205161544 80 60 19.0 24.0 0.00 0.01 0.00 82 1007.2
20160205161044 80 58 21.0 24.0 0.00 0.01 0.00 82 1007.3
20160205160544 80 57 19.0 25.0 0.00 0.01 0.00 82 1007.3
20160205160044 80 49 20.0 25.0 0.00 0.01 0.00 83 1007.3
20160205155545 80 58 19.0 24.0 0.00 0.01 0.00 82 1007.6
20160205155044 80 60 19.0 26.0 0.00 0.01 0.00 83 1007.6
20160205154545 80 51 23.0 26.0 0.00 0.01 0.00 83 1007.6
20160205154044 80 46 18.0 24.0 0.00 0.01 0.00 83 1007.7
20160205153544 80 65 21.0 24.0 0.00 0.01 0.00 83 1007.7
20160205153044 80 53 17.0 24.0 0.00 0.01 0.00 83 1007.7
20160205152544 80 55 18.0 24.0 0.00 0.01 0.00 83 1007.7
20160205152044 80 57 16.0 24.0 0.00 0.01 0.00 83 1007.7
20160205151545 80 56 20.0 24.0 0.00 0.01 0.00 83 1007.7
20160205151045 80 60 17.0 24.0 0.00 0.01 0.00 83 1007.9
20160205150544 80 50 20.0 23.0 0.00 0.01 0.00 84 1007.9
20160205150044 80 67 18.0 23.0 0.00 0.01 0.00 84 1007.9
20160205145544 80 65 16.0 23.0 0.00 0.01 0.00 84 1008.0
20160205145044 80 53 17.0 24.0 0.00 0.01 0.00 84 1008.0
20160205144544 80 40 17.0 24.0 0.00 0.01 0.00 83 1008.0
20160205144045 80 46 21.0 24.0 0.00 0.01 0.00 83 1008.2
20160205143544 80 69 17.0 24.0 0.00 0.01 0.00 83 1008.2
20160205143044 80 56 17.0 22.0 0.00 0.01 0.00 83 1008.2
20160205142544 80 59 18.0 23.0 0.00 0.01 0.00 83 1008.3
20160205142044 80 55 22.0 23.0 0.00 0.01 0.00 83 1008.3
20160205141544 80 57 19.0 22.0 0.00 0.01 0.00 83 1008.3
20160205141044 80 64 13.0 22.0 0.00 0.01 0.00 84 1008.3
20160205140544 80 57 20.0 24.0 0.00 0.01 0.00 83 1008.3
20160205140114 80 57 17.0 24.0 0.00 0.01 0.00 83 1008.3
20160205135544 80 56 21.0 23.0 0.00 0.01 0.01 83 1008.6
20160205135044 80 61 20.0 23.0 0.00 0.01 0.01 82 1008.6
20160205134544 80 51 19.0 23.0 0.00 0.01 0.01 83 1008.6
20160205134044 80 63 20.0 23.0 0.00 0.01 0.01 83 1008.6
20160205133544 80 58 19.0 23.0 0.00 0.01 0.01 83 1008.6
20160205133044 80 42 15.0 22.0 0.00 0.01 0.01 84 1008.6
20160205132544 80 49 15.0 23.0 0.00 0.01 0.01 83 1008.7
20160205132044 80 63 20.0 23.0 0.00 0.01 0.01 83 1008.7
20160205131544 80 65 18.0 20.0 0.00 0.01 0.01 81 1008.7
20160205131044 81 47 17.0 22.0 0.00 0.01 0.01 82 1008.8
20160205130544 80 53 15.0 22.0 0.00 0.01 0.01 80 1008.8
20160205130114 80 58 19.0 21.0 0.00 0.01 0.01 82 1008.8
20160205125544 80 48 20.0 20.0 0.00 0.01 0.01 83 1009.1
20160205125044 80 57 17.0 20.0 0.00 0.01 0.01 82 1009.1
20160205124544 81 59 15.0 23.0 0.00 0.01 0.01 82 1009.1
20160205124044 80 62 16.0 23.0 0.00 0.01 0.01 81 1009.2
20160205123544 81 61 16.0 22.0 0.00 0.01 0.01 81 1009.2
20160205123044 81 52 20.0 22.0 0.00 0.01 0.01 81 1009.2
20160205122544 81 47 19.0 21.0 0.00 0.01 0.01 81 1009.2
20160205122044 81 48 20.0 21.0 0.00 0.01 0.01 82 1009.2
20160205121545 81 57 19.0 20.0 0.00 0.01 0.01 81 1009.2
20160205121044 80 53 16.0 21.0 0.00 0.01 0.01 81 1009.2
20160205120544 81 61 16.0 22.0 0.00 0.01 0.01 81 1009.2
20160205120114 80 59 18.0 23.0 0.00 0.01 0.01 80 1009.2
20160205115544 80 64 19.0 23.0 0.00 0.01 0.01 81 1009.1
20160205115044 80 52 16.0 23.0 0.00 0.01 0.01 81 1009.1
20160205114544 81 53 14.0 22.0 0.00 0.01 0.01 81 1009.1
20160205114044 81 43 18.0 22.0 0.00 0.01 0.01 81 1008.9
20160205113544 80 56 20.0 22.0 0.00 0.01 0.01 79 1008.9
20160205113044 81 47 17.0 21.0 0.00 0.01 0.01 82 1008.9
20160205112544 81 40 20.0 25.0 0.00 0.01 0.01 80 1008.9
20160205112044 81 45 16.0 25.0 0.00 0.01 0.01 80 1008.9
20160205111544 81 50 23.0 24.0 0.00 0.01 0.01 80 1008.9
20160205111044 80 41 18.0 22.0 0.00 0.01 0.01 82 1008.8
20160205110544 81 46 20.0 22.0 0.00 0.01 0.01 82 1008.8
20160205110114 81 42 19.0 23.0 0.00 0.01 0.01 82 1008.8
20160205105544 81 46 19.0 23.0 0.00 0.01 0.01 81 1008.8
20160205105044 81 46 18.0 23.0 0.00 0.01 0.01 81 1008.8
20160205104544 80 40 21.0 24.0 0.00 0.01 0.01 80 1008.7
20160205104044 81 58 22.0 24.0 0.00 0.01 0.01 81 1008.7
20160205103544 81 56 20.0 23.0 0.00 0.01 0.01 81 1008.7
20160205103044 81 57 19.0 23.0 0.00 0.01 0.01 80 1008.7
20160205102544 81 53 23.0 24.0 0.00 0.01 0.01 80 1008.6
20160205102044 81 56 18.0 24.0 0.00 0.01 0.01 81 1008.6
20160205101543 81 59 16.0 23.0 0.00 0.01 0.01 81 1008.6
20160205101044 81 64 21.0 25.0 0.00 0.01 0.01 81 1008.3
20160205100544 80 69 21.0 25.0 0.00 0.01 0.01 81 1008.2
20160205100114 81 48 23.0 25.0 0.00 0.01 0.01 81 1008.3
20160205095543 81 57 20.0 24.0 0.00 0.01 0.01 80 1008.2
20160205095044 80 55 23.0 25.0 0.00 0.01 0.01 80 1008.2
20160205094544 80 56 18.0 25.0 0.00 0.01 0.01 80 1008.2
20160205094044 81 49 20.0 25.0 0.00 0.01 0.01 81 1008.0
20160205093544 81 65 16.0 26.0 0.00 0.01 0.01 81 1008.0
20160205093044 81 43 22.0 26.0 0.00 0.01 0.01 81 1008.0
20160205092543 81 55 19.0 23.0 0.00 0.01 0.01 81 1008.0
20160205092044 81 53 21.0 22.0 0.00 0.01 0.01 81 1008.0
20160205091043 80 44 17.0 24.0 0.00 0.01 0.01 80 1007.9